Beverly, MA

12:29 PM EST on January 20, 2018 (GMT -0500)
Beverly Municipal

Weather History for KBVY - May, 2013

Change the Weather History Date:

Wednesday, May 8, 2013

  Actual Average Record
Temperature  
Mean Temperature 58 °F -  
Max Temperature 68 °F 61 °F 82 °F (2000)
Min Temperature 48 °F 42 °F 15 °F (1976)
Degree Days  
Heating Degree Days 7    
Growing Degree Days 8 (Base 50)    
Moisture  
Dew Point 55 °F    
Average Humidity 90    
Maximum Humidity 100    
Minimum Humidity 73    
Precipitation  
Precipitation 0.06 in - - ()
Sea Level Pressure  
Sea Level Pressure 30.15 in    
Wind  
Wind Speed 5 mph (SE)    
Max Wind Speed 16 mph    
Max Gust Speed 23 mph    
Visibility 7 miles    
Events Fog , Rain    
Averages and records for this station are not official NWS values.
T = Trace of Precipitation, MM = Missing Value Source: NWS Daily Summary

Daily Weather History Graph

Daily Weather History Graph

Search for Another Location

Airport or City:

Trip Planner

Search our weather history database for the weather conditions in past years. The results will help you decide how hot, cold, wet, or windy it might be!

Date:

Astronomy

May. 08, 2013 Rise Set
Actual Time 5:29 AM EDT 7:51 PM EDT
Civil Twilight 4:57 AM EDT 8:23 PM EDT
Nautical Twilight 4:18 AM EDT 9:02 PM EDT
Astronomical Twilight 3:34 AM EDT 9:46 PM EDT
Moon 4:37 AM EDT (5/8) 6:45 PM EDT (5/8)
Length of Visible Light 15h 25m
Length of Day
14h 22m
Waning Crescent, 2% of the Moon is Illuminated
May 8
Waning Crescent
May 9
New
May 18
First Quarter
May 25
Full
May 31
Last Quarter

Hourly Weather History & Observations

Time (EDT) Temp. Dew Point Humidity Pressure Visibility Wind Dir Wind Speed Gust Speed Precip Events Conditions
12:53 AM 59.0 °F 53.1 °F 81% 30.16 in 10.0 mi South 4.6 mph - N/A   Clear
1:53 AM 57.0 °F 51.1 °F 81% 30.14 in 10.0 mi Calm Calm - N/A   Clear
2:53 AM 55.0 °F 52.0 °F 89% 30.14 in 10.0 mi Calm Calm - N/A   Clear
3:53 AM 53.1 °F 51.1 °F 93% 30.15 in 10.0 mi ESE 3.5 mph - N/A   Clear
4:53 AM 51.1 °F 48.9 °F 92% 30.14 in 2.0 mi Calm Calm - N/A   Clear
5:00 AM 51.8 °F 48.2 °F 88% 30.16 in 1.8 mi Calm Calm - N/A   Clear
5:02 AM 51.8 °F 48.2 °F 88% 30.16 in 3.0 mi Calm Calm - N/A   Clear
5:53 AM 48.9 °F 48.0 °F 97% 30.16 in 4.0 mi Calm Calm - N/A   Partly Cloudy
6:30 AM 51.8 °F 50.0 °F 94% 30.19 in 1.5 mi SE 5.8 mph - N/A   Mostly Cloudy
6:34 AM 53.6 °F 51.8 °F 94% 30.19 in 0.2 mi ESE 4.6 mph - N/A Fog Fog
6:53 AM 54.0 °F 53.1 °F 97% 30.18 in 0.2 mi ESE 3.5 mph - N/A Fog Fog
7:26 AM 55.4 °F 55.4 °F 100% 30.20 in 0.2 mi ESE 3.5 mph - N/A Fog Fog
7:46 AM 57.2 °F 55.4 °F 94% 30.20 in 0.5 mi SE 3.5 mph - N/A Fog Fog
7:53 AM 57.0 °F 55.9 °F 96% 30.19 in 0.5 mi SE 5.8 mph - N/A Fog Fog
8:03 AM 57.2 °F 55.4 °F 94% 30.21 in 2.0 mi SE 5.8 mph - N/A   Overcast
8:12 AM 57.2 °F 55.4 °F 94% 30.21 in 1.0 mi SE 8.1 mph - N/A   Overcast
8:23 AM 57.2 °F 55.4 °F 94% 30.21 in 3.0 mi ESE 6.9 mph - N/A   Overcast
8:53 AM 59.0 °F 55.9 °F 90% 30.19 in 10.0 mi Calm Calm - N/A   Overcast
9:35 AM 62.6 °F 59.0 °F 88% 30.21 in 10.0 mi SE 5.8 mph - N/A   Overcast
9:53 AM 63.0 °F 59.0 °F 87% 30.19 in 10.0 mi ESE 8.1 mph - N/A   Mostly Cloudy
10:04 AM 62.6 °F 59.0 °F 88% 30.21 in 10.0 mi SSE 10.4 mph - N/A   Mostly Cloudy
10:19 AM 62.6 °F 57.2 °F 82% 30.22 in 10.0 mi SSE 8.1 mph - N/A   Mostly Cloudy
10:53 AM 62.1 °F 57.0 °F 84% 30.22 in 10.0 mi SE 9.2 mph - N/A   Overcast
11:33 AM 64.4 °F 59.0 °F 83% 30.21 in 10.0 mi SE 10.4 mph - N/A   Mostly Cloudy
11:53 AM 66.0 °F 61.0 °F 84% 30.19 in 10.0 mi SE 9.2 mph - N/A   Mostly Cloudy
12:53 PM 64.0 °F 57.9 °F 80% 30.18 in 10.0 mi SE 12.7 mph - N/A   Clear
1:53 PM 66.0 °F 57.9 °F 75% 30.16 in 10.0 mi SE 11.5 mph - N/A   Clear
2:53 PM 68.0 °F 59.0 °F 73% 30.14 in 10.0 mi SE 16.1 mph - N/A   Partly Cloudy
3:53 PM 62.1 °F 57.0 °F 84% 30.12 in 9.0 mi ESE 12.7 mph - 0.00 in Rain Light Rain
4:17 PM 57.2 °F 53.6 °F 88% 30.15 in 1.8 mi SE 10.4 mph 23.0 mph 0.05 in Rain Heavy Rain
4:24 PM 57.2 °F 55.4 °F 94% 30.14 in 3.0 mi ESE 8.1 mph - 0.06 in Rain Light Rain
4:45 PM 57.2 °F 55.4 °F 94% 30.14 in 10.0 mi SE 12.7 mph - 0.06 in   Overcast
4:53 PM 59.0 °F 57.0 °F 93% 30.13 in 9.0 mi ESE 9.2 mph - 0.06 in   Overcast
5:53 PM 57.0 °F 55.0 °F 93% 30.12 in 10.0 mi SE 10.4 mph - 0.00 in   Mostly Cloudy
6:02 PM 57.2 °F 53.6 °F 88% 30.13 in 10.0 mi ESE 12.7 mph 17.3 mph N/A   Mostly Cloudy
6:04 PM 57.2 °F 53.6 °F 88% 30.12 in 10.0 mi SE 10.4 mph 17.3 mph N/A   Mostly Cloudy
6:53 PM 57.0 °F 55.0 °F 93% 30.10 in 10.0 mi SE 9.2 mph - N/A   Mostly Cloudy
7:09 PM 57.2 °F 55.4 °F 94% 30.11 in 10.0 mi SE 10.4 mph - N/A   Mostly Cloudy
7:40 PM 57.2 °F 55.4 °F 94% 30.11 in 10.0 mi SE 8.1 mph - N/A   Mostly Cloudy
7:53 PM 57.0 °F 55.0 °F 93% 30.09 in 10.0 mi SE 9.2 mph - N/A   Overcast
8:23 PM 57.2 °F 55.4 °F 94% 30.09 in 10.0 mi ESE 6.9 mph - N/A   Mostly Cloudy
8:48 PM 57.2 °F 55.4 °F 94% 30.09 in 10.0 mi ESE 5.8 mph - N/A   Mostly Cloudy
8:53 PM 57.0 °F 55.0 °F 93% 30.08 in 10.0 mi ESE 5.8 mph - N/A   Scattered Clouds
9:25 PM 55.4 °F 55.4 °F 100% 30.09 in 9.0 mi ESE 8.1 mph - N/A   Mostly Cloudy
9:32 PM 55.4 °F 53.6 °F 94% 30.09 in 9.0 mi ESE 9.2 mph - N/A   Mostly Cloudy
9:53 PM 55.0 °F 54.0 °F 96% 30.08 in 7.0 mi ESE 6.9 mph - N/A   Overcast
10:53 PM 55.0 °F 53.1 °F 93% 30.06 in 10.0 mi East 9.2 mph - N/A   Overcast
11:53 PM 55.0 °F 53.1 °F 93% 30.05 in 10.0 mi ESE 8.1 mph - 0.00 in Rain Light Rain